Regional Weather Roundup
Issued by NWS

Home | Current Version | Previous Version | Graphics & Text | Print | Product List | Glossary On
Versions: 1 2 3 4 5 6 7 8 9 10 11 12 13 14 15 16 17 18 19 20 21 22 23 24 25 26 27
000
ASUS45 KCYS 241610
RWRWY

WYOMING REGIONAL WEATHER ROUNDUP
NATIONAL WEATHER SERVICE CHEYENNE WY
1000 AM MDT FRI MAR 24 2017

NOTE:  "FAIR" INDICATES FEW OR NO CLOUDS BELOW 12,000 FEET
WITH NO SIGNIFICANT WEATHER AND/OR OBSTRUCTIONS TO VISIBILITY.

WYZ001-241700-
YELLOWSTONE NATIONAL PARK

CITY           SKY/WX    TMP DP  RH WIND       PRES   REMARKS
LK YELLOWSTONE   N/A     24  20  84 CALM      30.20R
W YELLOWSTONE  NOT AVBL

$$
WYZ002>013-054>058-071-098>099-241700-
NORTHERN WYOMING

CITY           SKY/WX    TMP DP  RH WIND       PRES   REMARKS
JACKSON        SUNNY     30  27  86 CALM      30.21R
CODY           FAIR      45  25  45 SW18      30.11F
GREYBULL       FAIR      42  36  79 VRB6      30.14R
WORLAND        FAIR      44  37  76 S7        30.14R
SHERIDAN       FAIR      48  37  65 E5        30.10F
BUFFALO        FAIR      49  33  54 SE8       30.13R
GILLETTE       FAIR      48  36  63 CALM      30.14R
HULETT         FAIR      45  37  76 W3        30.15R
NEWCASTLE      FAIR      46  32  57 NW10      30.14S

$$
WYZ014>020-022>026-101>103-241700-
CENTRAL WYOMING

CITY           SKY/WX    TMP DP  RH WIND       PRES   REMARKS
BIG PINEY      FAIR      32  26  78 NW5       30.22R WCI  27
PINEDALE       CLOUDY    30  23  74 NW3       30.22S
DUBOIS         FAIR      30  23  74 W10       30.16S WCI  21
LANDER         FAIR      42  34  73 E7        30.15R
RIVERTON       FAIR      41  32  70 W5        30.17R
CASPER         FAIR      44  35  70 SW9       30.17R
DOUGLAS        FAIR      46  35  65 W14       30.17R

$$
WYZ021-027>030-104>119-241700-
SOUTHERN WYOMING

CITY           SKY/WX    TMP DP  RH WIND       PRES   REMARKS
EVANSTON       FAIR      32  27  81 SW6       30.23R WCI  26
FORT BRIDGER   FAIR      38  29  68 W10       30.25R WCI  32
ROCK SPRINGS   CLOUDY    39  33  79 SW13      30.22R WCI  31
DIXON            N/A     41  29  62 N15       30.21R
RAWLINS        FAIR      41  28  60 N6        30.20R
SARATOGA       CLOUDY    36  30  80 N13G18    30.20R WCI  27
LARAMIE        CLOUDY    32  30  92 NW10      30.15R WCI  24
CHEYENNE       FLURRIES  35  33  92 N18G25    30.10S WCI  24
TORRINGTON     CLOUDY    47  36  65 NW15G22   30.11S
PINE BLUFFS    PTSUNNY   41  36  81 N24G32    30.07R

$$




USA.gov is the U.S. government's official web portal to all federal, state and local government web resources and services.